Location: Sevilla
(37.3933°N, 5.9839°W)
Time: 13:46:22
(UTC+02:00)

SR - All Passes

Search period start: 25 June 2024 00:00
Search period end: 05 July 2024 00:00
Orbit: 580 x 858 km, 66.7° (Epoch: 24 June)

Date Brightness Start Highest point End Pass type
(mag) Time Alt. Az. Time Alt. Az. Time Alt. Az.
25 Jun - 11:30:42 10° SSW 11:35:43 89° WNW 11:40:21 10° NNE daylight
25 Jun - 13:16:50 10° WNW 13:18:06 11° NW 13:19:21 10° NNW daylight
25 Jun - 20:12:42 10° N 20:16:35 34° ENE 20:20:33 10° ESE daylight
25 Jun - 21:55:07 10° WNW 21:58:08 19° WSW 22:01:13 10° SSW daylight
26 Jun - 10:38:49 10° S 10:43:27 38° ESE 10:47:46 10° NE daylight
26 Jun - 12:21:31 10° WSW 12:25:20 23° NW 12:28:57 10° N daylight
26 Jun - 19:21:21 10° NNE 19:23:57 16° NE 19:26:34 10° E daylight
26 Jun - 21:01:54 10° NW 21:05:59 48° WSW 21:10:13 10° S daylight
27 Jun - 09:48:12 10° SSE 09:51:18 17° ESE 09:54:16 10° ENE daylight
27 Jun - 11:28:01 10° SW 11:32:48 49° WNW 11:37:15 10° NNE daylight
27 Jun - 20:09:28 10° NNW 20:13:41 65° ENE 20:18:02 10° SE daylight
28 Jun - 10:35:28 10° SSW 10:40:26 71° ESE 10:45:01 10° NNE daylight
28 Jun - 12:20:16 10° W 12:22:38 14° NW 12:24:58 10° NNW daylight
28 Jun - 19:17:35 10° N 19:21:12 27° NE 19:24:54 10° ESE daylight
28 Jun - 20:59:24 10° NW 21:02:54 25° WSW 21:06:29 10° SSW daylight
29 Jun - 09:43:53 10° S 09:48:11 30° ESE 09:52:13 10° NE daylight
29 Jun - 11:25:46 10° WSW 11:29:57 28° NW 11:33:53 10° N daylight
29 Jun - 18:26:39 10° NNE 18:28:29 12° NE 18:30:20 10° ENE daylight
29 Jun - 20:06:28 10° NW 20:10:42 65° WSW 20:15:03 10° SSE daylight
30 Jun - 08:54:02 10° SE 08:56:04 12° ESE 08:58:03 10° E daylight
30 Jun - 10:32:34 10° SW 10:37:28 63° WNW 10:42:00 10° NNE daylight
30 Jun - 19:14:12 10° NNW 19:18:20 48° ENE 19:22:35 10° SE daylight
30 Jun - 20:57:41 10° WNW 20:59:42 13° WSW 21:01:47 10° SW daylight
01 Jul - 09:40:17 10° S 09:45:07 54° ESE 09:49:36 10° NE daylight
01 Jul - 11:24:06 10° W 11:27:11 17° NW 11:30:08 10° N daylight
01 Jul - 18:22:30 10° N 18:25:47 21° NE 18:29:06 10° ESE daylight
01 Jul - 20:03:47 10° NW 20:07:37 33° WSW 20:11:35 10° S daylight
02 Jul - 08:49:03 10° SSE 08:52:54 23° ESE 08:56:32 10° ENE daylight
02 Jul - 10:30:06 10° WSW 10:34:32 35° WNW 10:38:43 10° N daylight
02 Jul - 19:11:05 10° NNW 19:15:21 87° WSW 19:19:47 10° SSE daylight
03 Jul - 09:37:10 10° SSW 09:42:06 82° WNW 09:46:39 10° NNE daylight
03 Jul - 18:18:58 10° N 18:22:56 37° ENE 18:27:00 10° SE daylight
03 Jul - 20:01:34 10° WNW 20:04:27 18° WSW 20:07:24 10° SSW daylight
04 Jul - 08:45:10 10° S 08:49:47 41° ESE 08:54:05 10° NE daylight
04 Jul - 10:28:07 10° WSW 10:31:42 21° NW 10:35:08 10° N daylight
04 Jul - 17:27:29 10° N 17:30:18 17° NE 17:33:08 10° E daylight
04 Jul - 19:08:13 10° NW 19:12:17 44° WSW 19:16:30 10° S daylight
